Volver al catálogo

STARLINK-1504

ActivoComunicacionesVLEO
NORAD 45746·PAYLOAD·🇺🇸 United States

Lanzado Jun 13, 2020 desde Cape Canaveral Space Force Station

Loading…

Próximos Pases (próximas 24 horas)

TLE

ActualizadoSource: CelesTrak SupGP

Época: Sep 15, 2026, 01:47 UTC

1 45746C 20038S   26258.07479167  .00069766  00000+0  65854-3 0  2585
2 45746  53.0163 299.7039 0003034  55.7251  35.6104 15.66334626    12

Sigue STARLINK-1504 en tiempo real con AllMySat

Download on the App Store